Previsão horária em Cerro Azul

Hoje, 27 Julho, Terça-feira

Tempo Temperatura Precipitação Vento Pressão Humidade
00:00 +25°C° 0.1 mm 1 m/s 742 mmHg 94%
01:00 +25°C° 0.1 mm 1 m/s 741 mmHg 94%
02:00 +25°C° 0.1 mm 1 m/s 741 mmHg 94%
03:00 +24°C° 0.1 mm 1 m/s 741 mmHg 94%
04:00 +24°C° 0.1 mm 1 m/s 741 mmHg 95%
05:00 +24°C° 0.1 mm 1 m/s 741 mmHg 95%
06:00 +24°C° 0.1 mm 1 m/s 741 mmHg 95%
07:00 +22°C° 0.1 mm 0 m/s 741 mmHg 95%
08:00 +23°C° 0.4 mm 0 m/s 742 mmHg 92%
09:00 +24°C° 0.4 mm 0 m/s 742 mmHg 90%
10:00 +25°C° 0.4 mm 0 m/s 743 mmHg 87%
11:00 +27°C° 0.1 mm 1 m/s 742 mmHg 84%
12:00 +28°C° 0.1 mm 1 m/s 742 mmHg 81%
13:00 +28°C° 0.1 mm 1 m/s 741 mmHg 78%
14:00 +28°C° 0.1 mm 1 m/s 741 mmHg 81%
15:00 +28°C° 0.1 mm 1 m/s 740 mmHg 83%
16:00 +27°C° 0.1 mm 1 m/s 740 mmHg 86%
17:00 +27°C° 0.2 mm 1 m/s 740 mmHg 88%
18:00 +26°C° 0.2 mm 1 m/s 740 mmHg 90%
19:00 +26°C° 0.2 mm 1 m/s 741 mmHg 91%
20:00 +23°C° 0.4 mm 0 m/s 741 mmHg 92%
21:00 +23°C° 0.4 mm 0 m/s 742 mmHg 93%
22:00 +23°C° 0.4 mm 0 m/s 742 mmHg 94%
23:00 +23°C° 0.1 mm 0 m/s 742 mmHg 94%

Amanhã, 28 Julho, Quarta-feira

Tempo Temperatura Precipitação Vento Pressão Humidade
00:00 +23°C° 0.1 mm 0 m/s 741 mmHg 94%
01:00 +23°C° 0.1 mm 0 m/s 741 mmHg 94%
02:00 +22°C° 0 mm 0 m/s 740 mmHg 94%
03:00 +22°C° 0 mm 0 m/s 740 mmHg 94%
04:00 +22°C° 0 mm 0 m/s 740 mmHg 94%
05:00 +22°C° 0.2 mm 0 m/s 740 mmHg 94%
06:00 +22°C° 0.2 mm 0 m/s 741 mmHg 94%
07:00 +23°C° 0.2 mm 0 m/s 741 mmHg 93%
08:00 +23°C° 0.6 mm 0 m/s 741 mmHg 91%
09:00 +24°C° 0.6 mm 0 m/s 741 mmHg 89%
10:00 +25°C° 0.6 mm 0 m/s 742 mmHg 87%
11:00 +25°C° 0.8 mm 0 m/s 741 mmHg 87%
12:00 +25°C° 0.8 mm 0 m/s 741 mmHg 86%
13:00 +25°C° 0.8 mm 0 m/s 741 mmHg 86%
14:00 +25°C° 0.5 mm 0 m/s 740 mmHg 87%
15:00 +26°C° 0.5 mm 1 m/s 739 mmHg 89%
16:00 +26°C° 0.5 mm 1 m/s 739 mmHg 91%
17:00 +26°C° 0 mm 1 m/s 739 mmHg 92%
18:00 +25°C° 0 mm 1 m/s 739 mmHg 93%
19:00 +25°C° 0 mm 1 m/s 739 mmHg 94%
20:00 +25°C° 0 mm 1 m/s 740 mmHg 94%
21:00 +25°C° 0 mm 1 m/s 740 mmHg 94%
22:00 +25°C° 0 mm 1 m/s 741 mmHg 94%
23:00 +24°C° 0 mm 1 m/s 740 mmHg 94%

Depois de amanhã, 29 Julho, Quinta-feira

Tempo Temperatura Precipitação Vento Pressão Humidade
00:00 +24°C° 0 mm 1 m/s 740 mmHg 94%
01:00 +24°C° 0 mm 1 m/s 740 mmHg 94%
02:00 +24°C° 0 mm 1 m/s 740 mmHg 94%
03:00 +24°C° 0 mm 1 m/s 739 mmHg 94%
04:00 +24°C° 0 mm 1 m/s 739 mmHg 94%
05:00 +22°C° 0 mm 0 m/s 740 mmHg 93%
06:00 +22°C° 0 mm 0 m/s 740 mmHg 93%
07:00 +22°C° 0 mm 0 m/s 740 mmHg 92%
08:00 +24°C° 0 mm 0 m/s 740 mmHg 84%
09:00 +26°C° 0 mm 0 m/s 741 mmHg 77%
10:00 +28°C° 0 mm 0 m/s 741 mmHg 69%
11:00 +29°C° 0.9 mm 1 m/s 741 mmHg 72%
12:00 +29°C° 0.9 mm 1 m/s 741 mmHg 74%
13:00 +29°C° 0.9 mm 1 m/s 740 mmHg 77%
14:00 +29°C° 1.3 mm 1 m/s 740 mmHg 79%
15:00 +29°C° 1.3 mm 1 m/s 739 mmHg 81%
16:00 +28°C° 1.3 mm 2 m/s 739 mmHg 83%
17:00 +27°C° 0.4 mm 2 m/s 739 mmHg 87%
18:00 +26°C° 0.4 mm 2 m/s 740 mmHg 90%
19:00 +25°C° 0.4 mm 2 m/s 740 mmHg 94%
20:00 +25°C° 0 mm 2 m/s 740 mmHg 94%
21:00 +25°C° 0 mm 2 m/s 741 mmHg 94%
22:00 +25°C° 0 mm 1 m/s 741 mmHg 95%
23:00 +25°C° 0 mm 1 m/s 741 mmHg 95%

30 Julho, Sexta-feira

Tempo Temperatura Precipitação Vento Pressão Humidade
00:00 +25°C° 0 mm 1 m/s 741 mmHg 95%
01:00 +25°C° 0 mm 1 m/s 741 mmHg 95%
02:00 +24°C° 0 mm 1 m/s 740 mmHg 95%
03:00 +24°C° 0 mm 1 m/s 740 mmHg 95%
04:00 +24°C° 0 mm 1 m/s 740 mmHg 95%
05:00 +24°C° 0 mm 1 m/s 740 mmHg 95%
06:00 +25°C° 0 mm 1 m/s 741 mmHg 94%
07:00 +25°C° 0 mm 1 m/s 741 mmHg 94%
08:00 +26°C° 0 mm 1 m/s 741 mmHg 89%
09:00 +27°C° 0 mm 1 m/s 741 mmHg 83%
10:00 +28°C° 0 mm 1 m/s 742 mmHg 78%
11:00 +29°C° 0 mm 1 m/s 741 mmHg 75%
12:00 +30°C° 0 mm 1 m/s 741 mmHg 71%
13:00 +30°C° 0 mm 1 m/s 740 mmHg 68%
14:00 +30°C° 0.1 mm 1 m/s 740 mmHg 70%
15:00 +30°C° 0.1 mm 1 m/s 739 mmHg 72%
16:00 +30°C° 0.1 mm 1 m/s 739 mmHg 74%
17:00 +29°C° 0.3 mm 1 m/s 739 mmHg 79%
18:00 +28°C° 0.3 mm 1 m/s 740 mmHg 84%
19:00 +27°C° 0.3 mm 1 m/s 740 mmHg 90%
20:00 +26°C° 0.1 mm 1 m/s 741 mmHg 91%
21:00 +26°C° 0.1 mm 1 m/s 741 mmHg 93%
22:00 +25°C° 0.1 mm 1 m/s 741 mmHg 94%
23:00 +25°C° 0.2 mm 1 m/s 741 mmHg 94%

31 Julho, Sábado

Tempo Temperatura Precipitação Vento Pressão Humidade
00:00 +25°C° 0.2 mm 1 m/s 741 mmHg 95%
01:00 +25°C° 0.2 mm 1 m/s 741 mmHg 95%
02:00 +25°C° 0.3 mm 1 m/s 741 mmHg 95%
03:00 +25°C° 0.3 mm 1 m/s 741 mmHg 95%
04:00 +24°C° 0.3 mm 1 m/s 741 mmHg 95%
05:00 +25°C° 0 mm 1 m/s 741 mmHg 94%
06:00 +25°C° 0 mm 1 m/s 741 mmHg 93%
07:00 +25°C° 0 mm 1 m/s 741 mmHg 92%
08:00 +25°C° 0 mm 0 m/s 742 mmHg 84%
09:00 +26°C° 0 mm 0 m/s 742 mmHg 76%
10:00 +28°C° 0 mm 0 m/s 742 mmHg 68%
11:00 +28°C° 0 mm 0 m/s 741 mmHg 67%
12:00 +31°C° 0 mm 1 m/s 741 mmHg 66%
13:00 +31°C° 0 mm 1 m/s 741 mmHg 65%
14:00 +31°C° 0 mm 1 m/s 740 mmHg 68%
15:00 +30°C° 0 mm 1 m/s 740 mmHg 72%
16:00 +30°C° 0 mm 1 m/s 739 mmHg 75%
17:00 +29°C° 0 mm 1 m/s 739 mmHg 80%
18:00 +28°C° 0 mm 1 m/s 740 mmHg 84%
19:00 +27°C° 0 mm 1 m/s 740 mmHg 89%
20:00 +26°C° 0.1 mm 1 m/s 740 mmHg 90%
21:00 +26°C° 0.1 mm 1 m/s 741 mmHg 91%
22:00 +26°C° 0.1 mm 1 m/s 741 mmHg 92%
23:00 +26°C° 0 mm 1 m/s 741 mmHg 92%

1 Agosto, Domingo

Tempo Temperatura Precipitação Vento Pressão Humidade
00:00 +25°C° 0 mm 1 m/s 741 mmHg 93%
01:00 +25°C° 0 mm 1 m/s 740 mmHg 94%
02:00 +25°C° 0 mm 1 m/s 740 mmHg 94%
03:00 +25°C° 0 mm 1 m/s 740 mmHg 95%
04:00 +23°C° 0 mm 0 m/s 740 mmHg 95%
05:00 +25°C° 0.3 mm 1 m/s 740 mmHg 95%
06:00 +25°C° 0.3 mm 1 m/s 741 mmHg 94%
07:00 +26°C° 0.3 mm 1 m/s 741 mmHg 93%
08:00 +27°C° 0.4 mm 1 m/s 741 mmHg 87%
09:00 +29°C° 0.4 mm 1 m/s 741 mmHg 81%
10:00 +30°C° 0.4 mm 1 m/s 741 mmHg 74%
11:00 +30°C° 1.6 mm 1 m/s 741 mmHg 75%
12:00 +28°C° 1.6 mm 0 m/s 741 mmHg 75%
13:00 +28°C° 1.6 mm 0 m/s 740 mmHg 75%
14:00 +30°C° 0.6 mm 1 m/s 740 mmHg 78%
15:00 +30°C° 0.6 mm 1 m/s 739 mmHg 80%
16:00 +29°C° 0.6 mm 1 m/s 739 mmHg 82%
17:00 +28°C° 0.6 mm 1 m/s 739 mmHg 85%
18:00 +27°C° 0.6 mm 1 m/s 740 mmHg 89%
19:00 +27°C° 0.6 mm 1 m/s 740 mmHg 92%
20:00 +26°C° 0.1 mm 1 m/s 741 mmHg 92%
21:00 +26°C° 0.1 mm 1 m/s 741 mmHg 93%
22:00 +26°C° 0.1 mm 1 m/s 741 mmHg 94%
23:00 +26°C° 0.6 mm 1 m/s 741 mmHg 94%
Mostrar mais

Necessitamos do seu Consentimento

A Meteoprog e os seus Fornecedores de Serviços podem armazenar e aceder a dados pessoais como cookies, identificadores do dispositivo ou outras tecnologias semelhantes existentes no seu dispositivo e processar estes dados para personalizar conteúdos e anúncios, assim como funcionalidades nas redes sociais e análise de tráfego.

  • Armazenar e/ou aceder a informações no seu dispositivo

    Os cookies, identificadores do dispositivo ou outras informações podem ser armazenados ou acedidos no seu dispositivo, para os fins acima indicados.

  • Anúncios e conteúdos personalizados, medição de anúncios e conteúdos, dados sobre o público-alvo e desenvolvimento de produtos

    Os anúncios e os conteúdos podem ser personalizados com base num perfil. Podem ser adicionados dados adicionais para uma maior personalização dos anúncios e dos conteúdos. A eficácia dos anúncios e dos conteúdos pode ser medida. Podem ser obtidas informações sobre o público que visualizou os anúncios e os conteúdos. Estes dados podem ser usados para desenvolver ou melhorar sistemas, softwares ou a experiência do utilizador.

Ao clicar em "Eu concordo”, permitirá o uso de cookies, identificadores do dispositivo e web beacons mencionados ou outras tecnologias semelhantes. As configurações do navegador do seu dispositivo podem ser alteradas.

Para certos fins, podem ser invocados interesses legítimos ao invés de consentimento. Pode ler mais informação sobre este assunto na nossa Política de Privacidade e Cookies.